Location: Unspecified
(34.4950°S, 58.5160°W)
Time: 18:46:52
(UTC+00:00)

Okean 1-7 - Pass Details

Date: 04 December 2021
Orbit: 591 x 616 km, 82.5° (Epoch: 28 January)

Event Time Altitude Azimuth Distance (km) Brightness Sun altitude
Rises 23:21:41 0° 174° (S) 2,900 6.9 -5.6°
Reaches altitude 10° 23:24:12 10° 162° (SSE) 1,982 5.9 -6.1°
Maximum altitude 23:27:59 28° 102° (ESE) 1,161 4.1 -6.7°
Drops below altitude 10° 23:31:41 10° 43° (NE) 1,944 5.0 -7.3°
Enters shadow 23:32:05 - 40° (NE) 2,087 5.1 -7.4°
